Weather observations for the past three days for
Philadelphia, Northeast Philadelphia Airport
Imperial (Metric)
Date Time (edt) Wind (mph) Vis. (mi.) Weather Sky Cond. Temperature (ºF) Relative Humidity Wind Chill (°F) Heat Index (°F) Pressure Precipitation (in)
Air Dwpt 6 hour altimeter (in) sea level (mb) 1 hr 3 hr 6 hr
Max. Min.
13 15:54 SW 8 G 20 10.00 A Few Clouds FEW065 88 57.9 36% 87 29.98 1014.9
13 14:54 SW 10 10.00 A Few Clouds FEW065 86 55 35% 84 29.99 1015.5
13 13:54 SW 7 G 21 10.00 Partly Cloudy FEW060 SCT075 86 57 87.1 72 37% 85 30.01 1015.9
13 12:54 SW 9 10.00 Partly Cloudy SCT055 84.9 57.9 40% 84 30.02 1016.3
13 11:54 Vrbl 7 10.00 Fair CLR 84 57.9 41% 83 30.03 1016.8
13 10:54 S 9 10.00 A Few Clouds FEW037 82 63 53% 83 30.04 1017.0
13 09:54 SW 6 10.00 Fair CLR 79 63 58% 81 30.05 1017.3
13 08:54 Vrbl 3 10.00 Fair CLR 75 63 66% 77 30.05 1017.5
13 07:54 Calm 10.00 Fair CLR 73 62.1 73 60.1 69% 30.05 1017.4
13 06:54 Calm 10.00 Fair CLR 66 60.1 81% 30.05 1017.3
13 05:54 Calm 6.00 Fog/Mist CLR 61 57 87% 30.04 1017.1
13 04:54 Calm 10.00 Fair CLR 62.1 57 84% 30.02 1016.5
13 03:54 Calm 10.00 Fair CLR 63 57 81% 30.02 1016.5
13 02:54 Calm 10.00 Fair CLR 64 57 78% 30.01 1016.2
13 01:54 Calm 10.00 Fair CLR 66.9 57.9 77 66 73% 30.02 1016.3
13 00:54 SW 5 10.00 Fair CLR 69.1 57 66% 30.03 1016.6
12 23:54 SW 5 10.00 Fair CLR 70 55.9 61% 30.03 1016.6
12 22:54 SW 5 10.00 Fair CLR 70 51.1 51% 30.03 1016.7
12 21:54 Calm 10.00 Fair CLR 70 48.9 47% 30.02 1016.5
12 20:54 Calm 10.00 Fair CLR 73 48 41% 30.01 1015.9
12 19:54 NW 7 10.00 A Few Clouds FEW080 77 48.9 82 77 37% 78 30 1015.8
12 18:54 NW 8 10.00 Fair CLR 79 48.9 35% 79 30 1015.7
12 17:54 Calm 10.00 A Few Clouds FEW070 81 48.9 33% 80 30 1015.6
12 16:54 W 14 G 18 10.00 Mostly Cloudy BKN065 82 48.9 32% 81 30 1015.7
12 15:54 Calm 10.00 A Few Clouds FEW065 79 50 36% 79 30.01 1016.2
12 14:54 W 6 10.00 Mostly Cloudy BKN060 79 50 36% 79 30.02 1016.5
12 13:54 Vrbl 6 10.00 Fair CLR 79 50 79 68 36% 79 30.04 1017.1
12 12:54 Vrbl 5 10.00 A Few Clouds FEW055 78.1 51.1 39% 79 30.05 1017.3
12 11:54 NW 9 10.00 A Few Clouds FEW055 75.9 50 40% 78 30.06 1017.7
12 10:54 Vrbl 7 10.00 Partly Cloudy SCT049 73 50 44% 30.06 1017.9
12 09:54 NW 6 10.00 Fair CLR 75 55 50% 78 30.06 1017.8
12 08:54 Calm 10.00 Fair CLR 72 55 55% 30.07 1018.2
12 07:54 Calm 10.00 Fair CLR 68 54 68 60.1 61% 30.06 1017.9
12 06:54 NW 3 10.00 Overcast OVC055 63 53.1 70% 30.06 1017.9
12 05:54 Calm 10.00 Overcast FEW050 OVC060 62.1 53.1 73% 30.05 1017.5
12 04:54 Calm 10.00 Partly Cloudy SCT060 61 52 72% 30.03 1017.0
12 03:54 NW 6 10.00 Fair CLR 60.1 52 75% 30.02 1016.5
12 02:54 N 6 10.00 Fair CLR 61 53.1 75% 30.02 1016.5
12 01:54 N 6 10.00 A Few Clouds FEW055 62.1 54 71.1 62.1 75% 30.02 1016.3
12 00:54 N 5 10.00 Overcast OVC055 66.9 55 66% 30.02 1016.4
11 23:54 Calm 10.00 Partly Cloudy SCT060 64 55.9 75% 30.02 1016.6
11 22:54 Calm 10.00 Overcast OVC090 66.9 55.9 68% 30 1015.9
11 21:54 Calm 10.00 Overcast OVC090 69.1 55.9 63% 29.99 1015.6
11 20:54 Calm 10.00 Overcast OVC090 69.1 52 55% 29.97 1014.9
11 19:54 N 7 10.00 Overcast OVC075 70 53.1 73.9 70 55% 29.96 1014.5
11 18:54 N 9 10.00 Overcast OVC095 72 53.1 52% 29.96 1014.4
11 17:54 NW 6 10.00 Overcast SCT065 OVC090 73 53.1 50% 29.94 1013.8
11 16:54 E 3 10.00 Overcast FEW043 BKN060 OVC090 73 53.1 50% 29.94 1013.9
11 15:54 Calm 10.00 Overcast SCT065 OVC090 72 53.1 52% 29.94 1013.9
11 14:54 W 3 10.00 Overcast FEW045 OVC065 73 53.1 50% 29.94 1013.9
11 13:54 NW 7 10.00 Overcast BKN045 OVC055 73 53.1 73.9 64.9 50% 29.95 1014.0
11 12:54 Calm 10.00 Mostly Cloudy FEW048 BKN100 72 52 50% 29.95 1014.0
11 11:54 NE 5 10.00 Overcast BKN060 OVC090 71.1 52 51% 29.95 1014.1
11 10:54 N 8 10.00 Overcast OVC060 71.1 52 51% 29.96 1014.3
11 09:54 N 7 10.00 Overcast OVC100 68 51.1 55% 29.95 1014.2
11 08:54 NE 12 10.00 Overcast OVC110 66 51.1 59% 29.94 1013.9
11 07:54 NE 7 10.00 Overcast BKN060 OVC120 64 51.1 64.9 57.9 63% 29.94 1013.7
11 05:54 NE 6 10.00 Fair CLR 59 50 72% 29.89 1011.9
11 04:54 N 8 10.00 Fair CLR 60.1 50 70% 29.87 1011.5
11 03:54 NE 3 10.00 Fair CLR 61 48.9 65% 29.87 1011.4
11 02:54 N 3 10.00 Fair CLR 61 48.9 65% 29.85 1010.9
11 01:54 NW 3 10.00 Mostly Cloudy BKN120 61 48.9 73 60.1 65% 29.85 1010.6
11 00:54 NW 3 10.00 Fair CLR 63 48 58% 29.84 1010.3
10 23:54 W 6 10.00 Fair CLR 64.9 48 54% 29.83 1010.1
10 22:54 NW 3 10.00 Fair CLR 64.9 48 54% 29.81 1009.3
10 21:54 NW 3 10.00 Fair CLR 68 46.9 47% 29.78 1008.4
10 20:54 W 8 10.00 Fair CLR 70 46.9 44% 29.75 1007.4
10 19:54 NW 8 10.00 Fair CLR 73 46.9 78.1 73 40% 29.74 1006.8
10 18:54 W 12 10.00 Fair CLR 75 48 39% 77 29.73 1006.5
10 17:54 W 13 10.00 Partly Cloudy SCT070 77 48 36% 78 29.72 1006.3
10 16:54 W 10 G 20 10.00 Partly Cloudy SCT070 78.1 48 35% 78 29.72 1006.4
Date Time (edt) Wind (mph) Vis. (mi.) Weather Sky Cond. Air Dwpt Max. Min. Relative Humidity Wind Chill (°F) Heat Index (°F) altimeter (in) sea level (mb) 1 hr 3 hr 6 hr
6 hour
Temperature (ºF) Pressure Precipitation (in)